Time,TemperatureF,DewpointF,PressureIn,WindDirection,WindDirectionDegrees,WindSpeedMPH,WindSpeedGustMPH,Humidity,HourlyPrecipIn,Conditions,Clouds,dailyrainin,SoftwareType,DateUTC
2013-04-14 00:03:00,54.0,40.0,30.05,West,279,0.0,0.0,58,0.00,,,0.00,,2013-04-14 04:03:00,
2013-04-14 00:13:00,54.0,40.0,30.05,West,279,0.0,0.0,58,0.00,,,0.00,,2013-04-14 04:13:00,
2013-04-14 00:23:00,53.0,37.0,30.06,West,279,0.0,0.0,55,0.00,,,0.00,,2013-04-14 04:23:00,
2013-04-14 00:33:00,53.0,38.0,30.06,West,279,0.0,0.0,56,0.00,,,0.00,,2013-04-14 04:33:00,
2013-04-14 00:43:00,53.0,38.0,30.06,West,279,0.0,0.0,56,0.00,,,0.00,,2013-04-14 04:43:00,
2013-04-14 00:52:00,52.0,38.0,30.06,West,279,0.0,0.0,59,0.00,,,0.00,,2013-04-14 04:52:00,
2013-04-14 01:03:00,52.0,38.0,30.06,West,279,0.0,0.0,58,0.00,,,0.00,,2013-04-14 05:03:00,
2013-04-14 01:12:00,52.0,38.0,30.06,West,279,0.0,0.0,58,0.00,,,0.00,,2013-04-14 05:12:00,
2013-04-14 01:22:00,51.0,38.0,30.06,West,279,0.0,0.0,62,0.00,,,0.00,,2013-04-14 05:22:00,
2013-04-14 01:32:00,50.0,37.0,30.07,West,279,0.0,0.0,61,0.00,,,0.00,,2013-04-14 05:32:00,
2013-04-14 01:42:00,50.0,37.0,30.07,West,279,0.0,0.0,61,0.00,,,0.00,,2013-04-14 05:42:00,
2013-04-14 01:52:00,49.0,37.0,30.07,West,279,0.0,0.0,62,0.00,,,0.00,,2013-04-14 05:52:00,
2013-04-14 02:02:00,49.0,39.0,30.07,West,279,0.0,0.0,68,0.00,,,0.00,,2013-04-14 06:02:00,
2013-04-14 02:12:00,49.0,39.0,30.07,West,279,0.0,0.0,68,0.00,,,0.00,,2013-04-14 06:12:00,
2013-04-14 02:22:00,48.0,37.0,30.07,West,279,0.0,0.0,66,0.00,,,0.00,,2013-04-14 06:22:00,
2013-04-14 02:32:00,48.0,38.0,30.07,West,279,0.0,0.0,69,0.00,,,0.00,,2013-04-14 06:32:00,
2013-04-14 02:42:00,48.0,38.0,30.07,West,279,0.0,0.0,69,0.00,,,0.00,,2013-04-14 06:42:00,
2013-04-14 02:52:00,48.0,38.0,30.06,NNW,338,1.0,2.0,68,0.00,,,0.00,,2013-04-14 06:52:00,
2013-04-14 03:03:00,48.0,38.0,30.06,NNW,338,0.0,0.0,69,0.00,,,0.00,,2013-04-14 07:03:00,
2013-04-14 03:12:00,48.0,38.0,30.06,NNW,338,0.0,0.0,69,0.00,,,0.00,,2013-04-14 07:12:00,
2013-04-14 03:22:00,47.0,38.0,30.06,NNW,338,0.0,0.0,71,0.00,,,0.00,,2013-04-14 07:22:00,
2013-04-14 03:32:00,46.0,38.0,30.06,NNW,338,0.0,0.0,74,0.00,,,0.00,,2013-04-14 07:32:00,
2013-04-14 03:42:00,46.0,38.0,30.06,NNW,338,0.0,0.0,74,0.00,,,0.00,,2013-04-14 07:42:00,
2013-04-14 03:52:00,46.0,38.0,30.07,NNW,338,0.0,0.0,74,0.00,,,0.00,,2013-04-14 07:52:00,
2013-04-14 04:02:00,46.0,36.0,30.07,NNW,338,0.0,0.0,68,0.00,,,0.00,,2013-04-14 08:02:00,
2013-04-14 04:12:00,46.0,36.0,30.07,NNW,338,0.0,0.0,68,0.00,,,0.00,,2013-04-14 08:12:00,
2013-04-14 04:22:00,46.0,37.0,30.07,NNW,338,0.0,0.0,72,0.00,,,0.00,,2013-04-14 08:22:00,
2013-04-14 04:32:00,45.0,37.0,30.08,West,274,1.0,3.0,74,0.00,,,0.00,,2013-04-14 08:32:00,
2013-04-14 04:42:00,45.0,37.0,30.08,West,274,1.0,3.0,74,0.00,,,0.00,,2013-04-14 08:42:00,
2013-04-14 04:52:00,44.0,38.0,30.08,West,274,0.0,0.0,78,0.00,,,0.00,,2013-04-14 08:52:00,
2013-04-14 05:03:00,43.0,37.0,30.08,South,172,0.0,2.0,80,0.00,,,0.00,,2013-04-14 09:03:00,
2013-04-14 05:12:00,43.0,37.0,30.08,South,172,0.0,2.0,80,0.00,,,0.00,,2013-04-14 09:12:00,
2013-04-14 05:22:00,43.0,38.0,30.08,South,172,0.0,1.0,81,0.00,,,0.00,,2013-04-14 09:22:00,
2013-04-14 05:33:00,43.0,38.0,30.09,SSE,159,0.0,0.0,81,0.00,,,0.00,,2013-04-14 09:33:00,
2013-04-14 05:43:00,43.0,38.0,30.09,SSE,159,0.0,0.0,81,0.00,,,0.00,,2013-04-14 09:43:00,
2013-04-14 05:54:00,44.0,39.0,30.08,SSE,157,0.0,0.0,81,0.00,,,0.00,,2013-04-14 09:54:00,
2013-04-14 06:03:00,43.0,37.0,30.08,SSE,157,0.0,0.0,80,0.00,,,0.00,,2013-04-14 10:03:00,
2013-04-14 06:12:00,43.0,37.0,30.08,SSE,157,0.0,0.0,80,0.00,,,0.00,,2013-04-14 10:12:00,
2013-04-14 06:23:00,43.0,38.0,30.08,NE,50,2.0,3.0,82,0.00,,,0.00,,2013-04-14 10:23:00,
2013-04-14 06:33:00,43.0,38.0,30.08,WNW,294,2.0,3.0,81,0.00,,,0.00,,2013-04-14 10:33:00,
2013-04-14 06:42:00,43.0,38.0,30.08,WNW,294,2.0,3.0,81,0.00,,,0.00,,2013-04-14 10:42:00,
2013-04-14 06:52:00,43.0,38.0,30.08,NW,324,0.0,1.0,82,0.00,,,0.00,,2013-04-14 10:52:00,
2013-04-14 07:02:00,42.0,38.0,30.09,NW,324,0.0,0.0,84,0.00,,,0.00,,2013-04-14 11:02:00,
2013-04-14 07:12:00,42.0,38.0,30.09,NW,324,0.0,0.0,84,0.00,,,0.00,,2013-04-14 11:12:00,
2013-04-14 07:23:00,42.0,38.0,30.09,NW,324,0.0,0.0,84,0.00,,,0.00,,2013-04-14 11:23:00,
2013-04-14 07:32:00,41.0,37.0,30.09,West,262,0.0,0.0,85,0.00,,,0.00,,2013-04-14 11:32:00,
2013-04-14 07:42:00,41.0,37.0,30.09,West,262,0.0,0.0,85,0.00,,,0.00,,2013-04-14 11:42:00,
2013-04-14 07:53:00,42.0,37.0,30.10,SSW,192,1.0,2.0,83,0.00,,,0.00,,2013-04-14 11:53:00,
2013-04-14 08:02:00,43.0,38.0,30.11,SW,222,1.0,2.0,83,0.00,,,0.00,,2013-04-14 12:02:00,
2013-04-14 08:12:00,43.0,38.0,30.11,SW,222,1.0,2.0,83,0.00,,,0.00,,2013-04-14 12:12:00,
2013-04-14 08:22:00,45.0,40.0,30.11,SW,232,0.0,4.0,81,0.00,,,0.00,,2013-04-14 12:22:00,
2013-04-14 08:32:00,48.0,40.0,30.12,SW,232,0.0,0.0,75,0.00,,,0.00,,2013-04-14 12:32:00,
2013-04-14 08:42:00,48.0,40.0,30.12,SW,232,0.0,0.0,75,0.00,,,0.00,,2013-04-14 12:42:00,
2013-04-14 08:52:00,50.0,41.0,30.13,West,260,2.0,3.0,71,0.00,,,0.00,,2013-04-14 12:52:00,
2013-04-14 09:02:00,52.0,42.0,30.13,West,270,1.0,4.0,68,0.00,,,0.00,,2013-04-14 13:02:00,
2013-04-14 09:12:00,52.0,42.0,30.13,West,270,1.0,4.0,68,0.00,,,0.00,,2013-04-14 13:12:00,
2013-04-14 09:22:00,54.0,42.0,30.13,SW,228,1.0,4.0,64,0.00,,,0.00,,2013-04-14 13:22:00,
2013-04-14 09:32:00,56.0,40.0,30.13,West,269,2.0,3.0,54,0.00,,,0.00,,2013-04-14 13:32:00,
2013-04-14 09:42:00,56.0,40.0,30.13,West,269,2.0,3.0,54,0.00,,,0.00,,2013-04-14 13:42:00,
2013-04-14 09:52:00,58.0,41.0,30.13,SW,234,2.0,4.0,54,0.00,,,0.00,,2013-04-14 13:52:00,
2013-04-14 10:02:00,60.0,42.0,30.14,SW,214,0.0,3.0,51,0.00,,,0.00,,2013-04-14 14:02:00,
2013-04-14 10:12:00,62.0,42.0,30.13,WSW,252,1.0,3.0,48,0.00,,,0.00,,2013-04-14 14:12:00,
2013-04-14 10:22:00,62.0,42.0,30.13,WSW,252,1.0,3.0,48,0.00,,,0.00,,2013-04-14 14:22:00,
2013-04-14 10:32:00,64.0,42.0,30.13,West,271,2.0,3.0,44,0.00,,,0.00,,2013-04-14 14:32:00,
2013-04-14 10:42:00,64.0,42.0,30.13,West,271,2.0,3.0,44,0.00,,,0.00,,2013-04-14 14:42:00,
2013-04-14 10:53:00,64.0,39.0,30.13,SE,143,1.0,4.0,40,0.00,,,0.00,,2013-04-14 14:53:00,
2013-04-14 11:02:00,66.0,38.0,30.13,SSW,192,3.0,6.0,36,0.00,,,0.00,,2013-04-14 15:02:00,
2013-04-14 11:12:00,66.0,38.0,30.13,SSW,192,3.0,6.0,36,0.00,,,0.00,,2013-04-14 15:12:00,
2013-04-14 11:22:00,67.0,36.0,30.12,South,171,3.0,5.0,32,0.00,,,0.00,,2013-04-14 15:22:00,
2013-04-14 11:33:00,68.0,39.0,30.12,SW,217,3.0,6.0,34,0.00,,,0.00,,2013-04-14 15:33:00,
2013-04-14 11:43:00,68.0,39.0,30.12,SW,217,3.0,6.0,34,0.00,,,0.00,,2013-04-14 15:43:00,
2013-04-14 11:53:00,69.0,39.0,30.12,SE,143,4.0,7.0,33,0.00,,,0.00,,2013-04-14 15:53:00,
2013-04-14 12:04:00,70.0,40.0,30.11,SSE,168,1.0,5.0,34,0.00,,,0.00,,2013-04-14 16:04:00,
2013-04-14 12:13:00,70.0,40.0,30.11,SSE,168,1.0,5.0,34,0.00,,,0.00,,2013-04-14 16:13:00,
2013-04-14 12:23:00,71.0,40.0,30.11,ESE,123,4.0,6.0,32,0.00,,,0.00,,2013-04-14 16:23:00,
2013-04-14 12:33:00,71.0,39.0,30.10,SSE,162,4.0,12.0,31,0.00,,,0.00,,2013-04-14 16:33:00,
2013-04-14 12:43:00,71.0,39.0,30.10,SSE,162,4.0,12.0,31,0.00,,,0.00,,2013-04-14 16:43:00,
2013-04-14 12:53:00,72.0,39.0,30.11,WSW,249,6.0,12.0,30,0.00,,,0.00,,2013-04-14 16:53:00,
2013-04-14 13:02:00,73.0,39.0,30.10,South,173,5.0,9.0,29,0.00,,,0.00,,2013-04-14 17:02:00,
2013-04-14 13:13:00,73.0,39.0,30.10,South,173,5.0,9.0,29,0.00,,,0.00,,2013-04-14 17:13:00,
2013-04-14 13:22:00,73.0,38.0,30.10,WSW,245,9.0,17.0,28,0.00,,,0.00,,2013-04-14 17:22:00,
2013-04-14 13:33:00,73.0,38.0,30.10,SE,142,6.0,14.0,28,0.00,,,0.00,,2013-04-14 17:33:00,
2013-04-14 13:42:00,73.0,38.0,30.10,SE,142,6.0,14.0,28,0.00,,,0.00,,2013-04-14 17:42:00,
2013-04-14 13:53:00,73.0,40.0,30.09,SSW,196,6.0,16.0,30,0.00,,,0.00,,2013-04-14 17:53:00,
2013-04-14 14:02:00,74.0,40.0,30.09,WSW,242,7.0,13.0,29,0.00,,,0.00,,2013-04-14 18:02:00,
2013-04-14 14:12:00,74.0,40.0,30.09,WSW,242,7.0,13.0,29,0.00,,,0.00,,2013-04-14 18:12:00,
2013-04-14 14:22:00,74.0,39.0,30.08,SSE,156,8.0,18.0,28,0.00,,,0.00,,2013-04-14 18:22:00,
2013-04-14 14:32:00,74.0,40.0,30.07,SSE,159,3.0,13.0,29,0.00,,,0.00,,2013-04-14 18:32:00,
2013-04-14 14:43:00,74.0,40.0,30.07,SSE,159,3.0,13.0,29,0.00,,,0.00,,2013-04-14 18:43:00,
2013-04-14 14:53:00,74.0,40.0,30.07,South,186,6.0,12.0,29,0.00,,,0.00,,2013-04-14 18:53:00,
2013-04-14 15:03:00,74.0,40.0,30.06,SSW,196,8.0,16.0,29,0.00,,,0.00,,2013-04-14 19:03:00,
2013-04-14 15:12:00,74.0,40.0,30.06,SSW,196,8.0,16.0,29,0.00,,,0.00,,2013-04-14 19:12:00,
2013-04-14 15:22:00,74.0,40.0,30.06,SSW,201,7.0,17.0,29,0.00,,,0.00,,2013-04-14 19:22:00,
2013-04-14 15:32:00,75.0,41.0,30.05,WSW,240,7.0,17.0,29,0.00,,,0.00,,2013-04-14 19:32:00,
2013-04-14 15:43:00,75.0,41.0,30.05,WSW,240,7.0,17.0,29,0.00,,,0.00,,2013-04-14 19:43:00,
2013-04-14 15:53:00,75.0,40.0,30.04,WSW,253,6.0,12.0,28,0.00,,,0.00,,2013-04-14 19:53:00,
2013-04-14 16:03:00,75.0,41.0,30.04,SW,227,5.0,12.0,30,0.00,,,0.00,,2013-04-14 20:03:00,
2013-04-14 16:13:00,75.0,41.0,30.04,SW,227,5.0,12.0,30,0.00,,,0.00,,2013-04-14 20:13:00,
2013-04-14 16:22:00,74.0,40.0,30.04,SW,221,7.0,14.0,29,0.00,,,0.00,,2013-04-14 20:22:00,
2013-04-14 16:33:00,74.0,39.0,30.04,SSW,213,8.0,13.0,28,0.00,,,0.00,,2013-04-14 20:33:00,
2013-04-14 16:43:00,74.0,39.0,30.04,SSW,213,8.0,13.0,28,0.00,,,0.00,,2013-04-14 20:43:00,
2013-04-14 16:52:00,74.0,41.0,30.04,SW,235,5.0,12.0,30,0.00,,,0.00,,2013-04-14 20:52:00,
2013-04-14 17:02:00,74.0,40.0,30.04,SSW,211,7.0,11.0,29,0.00,,,0.00,,2013-04-14 21:02:00,
2013-04-14 17:12:00,74.0,40.0,30.04,SSW,211,7.0,11.0,29,0.00,,,0.00,,2013-04-14 21:12:00,
2013-04-14 17:23:00,73.0,41.0,30.04,South,175,5.0,15.0,31,0.00,,,0.00,,2013-04-14 21:23:00,
2013-04-14 17:33:00,73.0,41.0,30.05,SW,227,3.0,10.0,32,0.00,,,0.00,,2013-04-14 21:33:00,
2013-04-14 17:43:00,73.0,41.0,30.05,SW,227,3.0,10.0,32,0.00,,,0.00,,2013-04-14 21:43:00,
2013-04-14 17:53:00,73.0,41.0,30.05,SSW,207,5.0,15.0,31,0.00,,,0.00,,2013-04-14 21:53:00,
2013-04-14 18:03:00,72.0,40.0,30.05,SW,232,5.0,12.0,31,0.00,,,0.00,,2013-04-14 22:03:00,
2013-04-14 18:13:00,72.0,40.0,30.05,SW,232,5.0,12.0,31,0.00,,,0.00,,2013-04-14 22:13:00,
2013-04-14 18:23:00,72.0,41.0,30.06,SSW,213,5.0,13.0,32,0.00,,,0.00,,2013-04-14 22:23:00,
2013-04-14 18:33:00,71.0,40.0,30.05,WSW,244,4.0,9.0,33,0.00,,,0.00,,2013-04-14 22:33:00,
2013-04-14 18:44:00,71.0,40.0,30.05,WSW,244,4.0,9.0,33,0.00,,,0.00,,2013-04-14 22:44:00,
2013-04-14 18:53:00,71.0,40.0,30.06,West,265,3.0,7.0,33,0.00,,,0.00,,2013-04-14 22:53:00,
2013-04-14 19:02:00,70.0,40.0,30.05,SW,219,3.0,9.0,34,0.00,,,0.00,,2013-04-14 23:02:00,
2013-04-14 19:12:00,70.0,40.0,30.05,SW,219,3.0,9.0,34,0.00,,,0.00,,2013-04-14 23:12:00,
2013-04-14 19:23:00,70.0,41.0,30.05,SSW,193,4.0,10.0,35,0.00,,,0.00,,2013-04-14 23:23:00,
2013-04-14 19:33:00,69.0,41.0,30.04,SSW,213,3.0,8.0,36,0.00,,,0.00,,2013-04-14 23:33:00,
2013-04-14 19:43:00,69.0,41.0,30.04,SSW,213,3.0,8.0,36,0.00,,,0.00,,2013-04-14 23:43:00,
2013-04-14 19:53:00,69.0,42.0,30.04,South,184,2.0,5.0,37,0.00,,,0.00,,2013-04-14 23:53:00,
2013-04-14 20:02:00,68.0,41.0,30.03,SE,143,4.0,8.0,38,0.00,,,0.00,,2013-04-15 00:02:00,
2013-04-14 20:12:00,68.0,41.0,30.03,SE,143,4.0,8.0,38,0.00,,,0.00,,2013-04-15 00:12:00,
2013-04-14 20:23:00,68.0,43.0,30.03,SW,236,3.0,8.0,40,0.00,,,0.00,,2013-04-15 00:23:00,
2013-04-14 20:33:00,67.0,43.0,30.03,SSW,195,3.0,9.0,41,0.00,,,0.00,,2013-04-15 00:33:00,
2013-04-14 20:42:00,67.0,44.0,30.03,SSW,192,3.0,6.0,43,0.00,,,0.00,,2013-04-15 00:42:00,
2013-04-14 20:52:00,67.0,44.0,30.03,SSW,192,3.0,6.0,43,0.00,,,0.00,,2013-04-15 00:52:00,
2013-04-14 21:02:00,67.0,44.0,30.03,SSE,159,1.0,5.0,43,0.00,,,0.00,,2013-04-15 01:02:00,
2013-04-14 21:12:00,67.0,44.0,30.03,SSE,159,1.0,5.0,43,0.00,,,0.00,,2013-04-15 01:12:00,
2013-04-14 21:23:00,66.0,44.0,30.03,South,173,1.0,5.0,45,0.00,,,0.00,,2013-04-15 01:23:00,
2013-04-14 21:32:00,66.0,44.0,30.02,South,176,0.0,2.0,45,0.00,,,0.00,,2013-04-15 01:32:00,
2013-04-14 21:42:00,66.0,44.0,30.02,South,176,0.0,2.0,45,0.00,,,0.00,,2013-04-15 01:42:00,
2013-04-14 21:52:00,65.0,44.0,30.03,SE,139,1.0,2.0,47,0.00,,,0.00,,2013-04-15 01:52:00,
2013-04-14 22:03:00,65.0,44.0,30.04,South,186,0.0,3.0,47,0.00,,,0.00,,2013-04-15 02:03:00,
2013-04-14 22:12:00,65.0,44.0,30.04,South,186,0.0,3.0,47,0.00,,,0.00,,2013-04-15 02:12:00,
2013-04-14 22:22:00,65.0,45.0,30.05,SSW,202,3.0,5.0,48,0.00,,,0.00,,2013-04-15 02:22:00,
2013-04-14 22:32:00,65.0,45.0,30.05,SSW,212,2.0,4.0,49,0.00,,,0.00,,2013-04-15 02:32:00,
2013-04-14 22:42:00,65.0,45.0,30.05,SSW,212,2.0,4.0,49,0.00,,,0.00,,2013-04-15 02:42:00,
2013-04-14 22:53:00,65.0,46.0,30.05,South,173,2.0,7.0,50,0.00,,,0.00,,2013-04-15 02:53:00,
2013-04-14 23:03:00,64.0,45.0,30.05,WSW,238,2.0,4.0,50,0.00,,,0.00,,2013-04-15 03:03:00,
2013-04-14 23:12:00,64.0,45.0,30.05,WSW,238,2.0,4.0,50,0.00,,,0.00,,2013-04-15 03:12:00,
2013-04-14 23:22:00,64.0,45.0,30.06,South,180,3.0,5.0,51,0.00,,,0.00,,2013-04-15 03:22:00,
2013-04-14 23:33:00,64.0,46.0,30.06,WSW,246,3.0,5.0,52,0.00,,,0.00,,2013-04-15 03:33:00,
2013-04-14 23:43:00,64.0,46.0,30.06,WSW,246,3.0,5.0,52,0.00,,,0.00,,2013-04-15 03:43:00,
2013-04-14 23:55:00,64.0,47.0,30.06,SW,232,9.0,15.0,55,0.00,,,0.00,,2013-04-15 03:55:00,